Printer-friendly version

IAU Minor Planet Center

Minor Planet Center

MPEC 2000-Q41: 2000 QY69

The following Minor Planet Electronic Circular may be linked-to from your own Web pages, but must not otherwise be redistributed electronically.


Read MPEC 2000-Q40 Read MPEC 2000-Q42


M.P.E.C. 2000-Q41                                Issued 2000 Aug. 31, 19:37 UT

     The Minor Planet Electronic Circulars contain information on unusual
         minor planets and routine data on comets.  They are published
   on behalf of Commission 20 of the International Astronomical Union by the
          Minor Planet Center, Smithsonian Astrophysical Observatory,
                          Cambridge, MA 02138, U.S.A.

             Prepared using the Tamkin Foundation Computer Network

             BMARSDEN@CFA.HARVARD.EDU or GWILLIAMS@CFA.HARVARD.EDU
          URL http://cfa-www.harvard.edu/iau/mpc.html  ISSN 1523-6714

                                   2000 QY69

Observations:
     K00Q69Y* C2000 08 29.34083 23 20 34.47 -11 52 10.8          18.3        704
     K00Q69Y  C2000 08 29.35423 23 20 31.32 -11 51 28.3          18.6        704
     K00Q69Y  C2000 08 29.38114 23 20 24.90 -11 50 03.5          18.6        704
     K00Q69Y  C2000 08 29.94512 23 18 17.43 -11 20 14.9          18.1        163
     K00Q69Y  C2000 08 29.94655 23 18 17.28 -11 20 12.1                      163
     K00Q69Y  C2000 08 29.94969 23 18 16.55 -11 20 02.5                      163
     K00Q69Y  C2000 08 29.95016 23 18 16.27 -11 20 01.0                      587
     K00Q69Y  C2000 08 29.95124 23 18 16.23 -11 19 56.9                      163
     K00Q69Y FC2000 08 29.95248 23 18 15.78 -11 19 52.1                      587
     K00Q69Y  C2000 08 29.96634 23 18 12.35 -11 19 07.9                      106
     K00Q69Y  C2000 08 29.98603 23 18 07.70 -11 18 05.3                      106
     K00Q69Y  C2000 08 30.00563 23 18 03.05 -11 17 02.0                      106
     K00Q69Y FC2000 08 30.15475 23 17 29.84 -11 08 31.5                      808
     K00Q69Y FC2000 08 30.19560 23 17 19.71 -11 06 18.7                      808
     K00Q69Y  C2000 08 30.59968 23 15 46.12 -10 44 27.0          18.3        422
     K00Q69Y FC2000 08 30.60127 23 15 45.69 -10 44 20.5                      422
     K00Q69Y  C2000 08 30.60438 23 15 44.90 -10 44 11.9          18.8        422
     K00Q69Y  C2000 08 31.29471 23 13 03.39 -10 06 51.5                      711
     K00Q69Y  C2000 08 31.29866 23 13 02.42 -10 06 37.9                      711
     K00Q69Y  C2000 08 31.30248 23 13 01.46 -10 06 25.4                      711

Observer details:
106 Crni Vrh.  Observers H. Mikuz, S. Maticic.  0.36-m f/6.7 Schmidt-Cassegrain
    + CCD.
163 Roeser Observatory, Luxembourg.  Observer M. Dawson.  0.457-m f/4.5
    reflector + CCD.
422 Loomberah.  Observer G. J. Garradd.  0.45-m f/5.4 reflector + CCD.
587 Sormano.  Observers F. Manca, P. Sicoli.  0.5-m reflector + CCD.
704 Lincoln Laboratory ETS, New Mexico.  Observers M. Blythe, F. Shelly,
    M. Bezpalko, M. Elowitz, R. Huber, L. Manguso.  Measurers J. Stuart,
    R. Sayer, J. B. Evans, H. Viggh.  1.0-m f/2.15 reflector + CCD.
711 McDonald Observatory.  Observers P. J. Shelus, J. A. Shelus.  0.76-m
    reflector + CCD.
808 El Leoncito.  Observers C. E. Lopez, H. S. Lepez.  0.5-m f/7.5 double
    astrograph + CCD.

Orbital elements:
2000 QY69
Epoch 2000 Aug. 24.0 TT = JDT 2451780.5                 Spahr
M 305.85908              (2000.0)            P               Q
n   0.57105716     Peri.   64.36895     +0.66186221     -0.73771861
a   1.4388527      Node   342.06946     +0.43248800     +0.52078931
e   0.1690254      Incl.   25.61118     +0.61228469     +0.42959255
P   1.73           H   18.7           G   0.15
From 20 observations 2000 Aug. 29-31.

Ephemeris:
2000 QY69                a,e,i = 1.44, 0.17, 26                  q = 1.1957
Date    TT    R. A. (2000) Decl.     Delta      r     Elong.  Phase     V
2000 08 24    23 39.24   -16 09.4    0.334    1.328   158.4    16.3    17.8
2000 08 29    23 21.86   -12 09.7    0.312    1.316   167.2     9.8    17.4
2000 09 03    23 02.17   -07 32.2    0.296    1.305   176.8     2.5    16.9
2000 09 08    22 41.14   -02 27.8    0.288    1.294   172.8     5.6    17.0
2000 09 13    22 19.99   +02 44.9    0.287    1.283   162.5    13.7    17.3
2000 09 18    21 59.92   +07 45.2    0.294    1.273   152.6    21.3    17.6
2000 09 23    21 41.91   +12 16.8    0.307    1.263   143.4    28.3    17.9
2000 09 28    21 26.62   +16 12.2    0.325    1.254   135.3    34.2    18.2
2000 10 03    21 14.33   +19 31.3    0.346    1.245   128.2    39.1    18.4
2000 10 08    21 05.01   +22 18.8    0.371    1.237   122.2    43.1    18.7
2000 10 13    20 58.44   +24 40.7    0.396    1.229   117.0    46.3    18.9
2000 10 18    20 54.31   +26 42.7    0.423    1.222   112.6    48.8    19.1
2000 10 23    20 52.37   +28 29.8    0.449    1.216   108.8    50.8    19.3
2000 10 28    20 52.37   +30 05.9    0.476    1.211   105.5    52.2    19.4
2000 11 02    20 54.12   +31 34.6    0.501    1.206   102.7    53.3    19.6
2000 11 07    20 57.42   +32 58.4    0.526    1.202   100.4    54.2    19.7
2000 11 12    21 02.12   +34 19.0    0.549    1.199    98.3    54.7    19.8
2000 11 17    21 08.13   +35 37.7    0.571    1.197    96.6    55.1    19.9
2000 11 22    21 15.40   +36 55.3    0.591    1.196    95.2    55.3    20.0

2000 12 02    21 33.67   +39 30.5    0.628    1.196    93.0    55.4    20.1
2000 12 12    21 56.99   +42 07.8    0.659    1.200    91.6    55.1    20.2
2000 12 22    22 25.76   +44 44.8    0.685    1.207    90.8    54.6    20.3
2001 01 01    23 00.74   +47 15.9    0.707    1.217    90.6    53.9    20.3
2001 01 11    23 42.51   +49 29.9    0.729    1.230    90.6    53.1    20.4
2001 01 21    00 31.11   +51 09.5    0.752    1.246    90.7    52.2    20.5
2001 01 31    01 25.46   +51 56.0    0.779    1.264    90.7    51.2    20.6
2001 02 10    02 22.72   +51 34.9    0.813    1.284    90.5    50.2    20.7
2001 02 20    03 19.16   +50 02.2    0.855    1.305    89.8    49.2    20.8
2001 03 02    04 11.71   +47 27.6    0.908    1.328    88.7    48.2    20.9
2001 03 12    04 58.79   +44 08.9    0.970    1.352    87.0    47.2    21.1
2001 03 22    05 40.28   +40 24.2    1.043    1.376    84.9    46.1    21.2
2001 04 01    06 16.89   +36 28.3    1.124    1.401    82.4    45.0    21.4
2001 04 11    06 49.51   +32 31.0    1.212    1.426    79.5    43.7    21.6
2001 04 21    07 18.97   +28 37.6    1.306    1.450    76.5    42.4    21.7
2001 05 01    07 46.01   +24 50.7    1.403    1.474    73.3    40.9    21.9
2001 05 11    08 11.18   +21 10.9    1.503    1.497    70.0    39.4    22.0

Gareth V. Williams           (C) Copyright 2000 MPC           M.P.E.C. 2000-Q41

Read MPEC 2000-Q40 Read MPEC 2000-Q42


Our Web policy. Index to the CBAT/MPC/ICQ pages.


Valid HTML 4.01!